Flag for Germany Weather past 2 weeks in Warburg, North Rhine-Westphalia, Germany

Now
36 °F

Light rain. Partly cloudy.


Feels Like: 28 °F
Forecast: 33 / 44 °F
Wind: 10 mph from Southwest

Location: Kassel / Calden

Current Time: Apr 2, 2015 at 6:43:30 AM

Latest Report: Apr 2, 2015 at 6:20 AM


Visibility: 6 mi

Pressure: 29.71 "Hg

Humidity: 93%

Dew point: 34 °F

Location of WarburgLocation

Historic Weather in Warburg — Graph

°F

Warburg temperature yesterday

Maximum temperature yesterday: 41 °F (at 12:50 PM)
Minimum temperature yesterday: 32 °F (at 6:50 AM)
Average temperature yesterday: 36 °F

Past Weeks' High & Low Weather Summary

 TemperatureHumidityPressure
High63 °F (Mar 25, 1:50 PM)100% (Mar 18, 6:20 AM)30.33 "Hg (Mar 18, 6:20 AM)
Low27 °F (Mar 23, 5:50 AM)37% (Mar 25, 1:50 PM)29.15 "Hg (Mar 31, 7:50 AM)
Average43 °F77%29.90 "Hg
* Reported Mar 17 8:20 PM — Apr 1 9:50 PM, Warburg, Weather by CustomWeather, © 2015

Note: Actual official high and low records may vary slightly from our data, if they occured in-between our weather recording intervals... More about our weather records

Advertising

Warburg weather history for previous 24 hours

 ConditionsComfort  
Time TempWeatherWind HumidityBarometerVisibility
9:50 PM
Wed, Apr 1
34 °FPassing clouds.7 mph93%29.98 "HgN/A
9:20 PM34 °FPassing clouds.15 mph93%30.01 "HgN/A
8:50 PM36 °FLight rain. Cloudy.16 mph87%29.98 "HgN/A
8:20 PM36 °FLight rain. Broken clouds.14 mph87%29.98 "Hg6 mi
7:50 PM34 °FLight rain. Partly sunny.21 mph93%29.98 "Hg4 mi
7:20 PM36 °FBroken clouds.18 mph87%29.98 "HgN/A
6:50 PM36 °FBroken clouds.17 mph87%29.98 "HgN/A
6:20 PM36 °FLight rain. Broken clouds.20 mph87%29.98 "Hg6 mi
5:50 PM36 °FBroken clouds.22 mph87%29.95 "HgN/A
5:20 PM36 °FPartly sunny.14 mph87%29.95 "Hg6 mi
4:50 PM34 °FBroken clouds.12 mph93%29.95 "Hg4 mi
4:20 PM34 °FLight snow. Broken clouds.18 mph93%29.95 "Hg2 mi
3:50 PM36 °FLight rain. Broken clouds.17 mph93%29.95 "Hg4 mi
3:20 PM34 °FLight snow. Cloudy.18 mph93%29.95 "Hg3 mi
2:50 PM36 °FBroken clouds.13 mph87%29.95 "HgN/A
2:20 PM39 °FLight rain. Partly sunny.22 mph70%29.92 "HgN/A
1:50 PM41 °FLight rain. Partly sunny.17 mph70%29.92 "HgN/A
1:20 PM41 °FBroken clouds.21 mph70%29.92 "HgN/A
12:50 PM41 °FPartly sunny.20 mph76%29.92 "HgN/A
12:20 PM39 °FPartly sunny.24 mph75%29.92 "HgN/A
11:50 AM39 °FLight rain. Partly sunny.16 mph81%29.92 "Hg5 mi
11:20 AM37 °FPartly sunny.21 mph87%29.92 "HgN/A
10:50 AM37 °FBroken clouds.22 mph87%29.89 "HgN/A
10:20 AM37 °FPartly sunny.22 mph87%29.89 "HgN/A
9:50 AM34 °FLight rain. Partly sunny.18 mph93%29.86 "Hg4 mi
9:20 AM34 °FHeavy snow. Overcast.21 mph93%29.86 "Hg1 mi
8:50 AM36 °FLight rain. Partly sunny.20 mph81%29.83 "Hg5 mi
8:20 AM34 °FLight snow. Partly sunny.22 mph87%29.83 "Hg5 mi
7:50 AM34 °FPassing clouds.18 mph93%29.80 "HgN/A
7:20 AM34 °FScattered showers. Passing clouds.20 mph93%29.80 "HgN/A
6:50 AM32 °FPassing clouds.14 mph100%29.80 "HgN/A
6:20 AM34 °FSnow showers. Fog.18 mph93%29.77 "Hg3 mi
Weather by CustomWeather, © 2015

See weather overviewHow to use our weather pages